Weather History for McComb, MS

Change the Weather History Date:

Wednesday, October 12, 2011

  Actual Average Record
Temperature  
Mean Temperature 69 °F -  
Max Temperature 81 °F 80 °F 92 °F (1963)
Min Temperature 57 °F 55 °F 42 °F (1971)
Cooling Degree Days 4    
Growing Degree Days 19 (Base 50)    
Moisture  
Dew Point 62 °F    
Average Humidity 90    
Maximum Humidity 100    
Minimum Humidity 56    
Precipitation  
Precipitation 0.18 in - - ()
Sea Level Pressure  
Sea Level Pressure 29.84 in    
Wind  
Wind Speed 1 mph (SSW)    
Max Wind Speed 7 mph    
Max Gust Speed 18 mph    
Visibility 5 miles    
Events Fog , Rain    
Averages and records for this station are not official NWS values.
T = Trace of Precipitation, MM = Missing Value Source: NWS Daily Summary

Daily Weather History Graph

Daily Weather History Graph

Search for Another Location

Airport:

Trip Planner

Search our weather history database for the weather conditions in past years. The results will help you decide how hot, cold, wet, or windy it might be!

Date:

Astronomy

Oct. 12, 2011 Rise Set
Actual Time 7:02 AM CDT 6:33 PM CDT
Civil Twilight 6:38 AM CDT 6:58 PM CDT
Nautical Twilight 6:10 AM CDT 7:26 PM CDT
Astronomical Twilight 5:41 AM CDT 7:54 PM CDT
Moon 6:43 PM CDT (10/12) 7:31 AM CDT (10/12)
Length of Visible Light 12h 20m
Length of Day
11h 31m
Full, 100% of the Moon is Illuminated
Oct 12
Full
Oct 19
Last Quarter
Oct 26
New
Nov 2
First Quarter
Nov 10
Full

Hourly Weather History & Observations

Time (CDT) Temp. Heat Index Dew Point Humidity Pressure Visibility Wind Dir Wind Speed Gust Speed Precip Events Conditions
12:53 AM 66.0 °F - 63.0 °F 90% 29.87 in 10.0 mi Calm Calm - N/A   Scattered Clouds
1:53 AM 62.1 °F - 61.0 °F 96% 29.86 in 5.0 mi Calm Calm - N/A   Clear
2:53 AM 61.0 °F - 60.1 °F 97% 29.85 in 10.0 mi Calm Calm - N/A   Clear
3:53 AM 60.1 °F - 57.9 °F 93% 29.85 in 7.0 mi Calm Calm - N/A   Clear
4:25 AM 59.0 °F - 57.2 °F 94% 29.86 in 9.0 mi Calm Calm - N/A   Scattered Clouds
4:34 AM 60.8 °F - 57.2 °F 88% 29.86 in 10.0 mi Calm Calm - N/A   Mostly Cloudy
4:53 AM 59.0 °F - 57.9 °F 96% 29.85 in 7.0 mi Calm Calm - N/A   Overcast
5:38 AM 59.0 °F - 57.2 °F 94% 29.85 in 1.8 mi Calm Calm - N/A   Overcast
5:48 AM 57.2 °F - 57.2 °F 100% 29.86 in 0.5 mi Calm Calm - N/A Fog Fog
5:53 AM 57.9 °F - 57.9 °F 100% 29.85 in 0.5 mi Calm Calm - N/A Fog Fog
6:19 AM 57.2 °F - 57.2 °F 100% 29.86 in 2.5 mi Calm Calm - N/A   Overcast
6:25 AM 57.2 °F - 57.2 °F 100% 29.86 in 0.8 mi Calm Calm - N/A   Overcast
6:37 AM 57.2 °F - 57.2 °F 100% 29.86 in 0.2 mi Calm Calm - N/A Fog Fog
6:53 AM 57.9 °F - 57.9 °F 100% 29.86 in 0.2 mi Calm Calm - N/A Fog Fog
7:53 AM 59.0 °F - 59.0 °F 100% 29.87 in 0.2 mi Calm Calm - N/A Fog Fog
8:53 AM 63.0 °F - 63.0 °F 100% 29.87 in 0.2 mi Calm Calm - N/A Fog Fog
9:11 AM 64.4 °F - 64.4 °F 100% 29.89 in 3.0 mi Calm Calm - N/A   Overcast
9:38 AM 66.2 °F - 64.4 °F 94% 29.88 in 9.0 mi SSE 4.6 mph - N/A   Scattered Clouds
9:53 AM 69.1 °F - 64.0 °F 84% 29.88 in 10.0 mi SSW 4.6 mph - N/A   Clear
10:53 AM 73.0 °F - 64.9 °F 76% 29.87 in 10.0 mi SW 3.5 mph - N/A   Partly Cloudy
11:27 AM 73.4 °F - 64.4 °F 73% 29.87 in 10.0 mi Variable 3.5 mph - N/A   Mostly Cloudy
11:34 AM 73.4 °F - 64.4 °F 73% 29.87 in 10.0 mi Variable 3.5 mph - N/A   Scattered Clouds
11:53 AM 73.9 °F - 64.0 °F 71% 29.85 in 10.0 mi Variable 4.6 mph - N/A   Partly Cloudy
1:53 PM 80.1 °F 81.7 °F 64.0 °F 58% 29.80 in 10.0 mi West 4.6 mph - N/A   Mostly Cloudy
2:53 PM 81.0 °F 82.5 °F 64.0 °F 56% 29.78 in 10.0 mi Variable 6.9 mph - N/A   Scattered Clouds
3:53 PM 80.1 °F 81.5 °F 63.0 °F 56% 29.76 in 10.0 mi SSW 3.5 mph - N/A   Mostly Cloudy
4:53 PM 81.0 °F 82.5 °F 64.0 °F 56% 29.75 in 10.0 mi SW 6.9 mph - N/A   Scattered Clouds
5:53 PM 77.0 °F - 66.0 °F 69% 29.75 in 10.0 mi Calm Calm - N/A   Partly Cloudy
6:35 PM 66.2 °F - 64.4 °F 94% 29.78 in 2.5 mi South 6.9 mph 18.4 mph 0.12 in Rain Light Rain
6:43 PM 66.2 °F - 64.4 °F 94% 29.78 in 7.0 mi SSW 4.6 mph - 0.12 in Rain Light Rain
6:53 PM 64.9 °F - 64.9 °F 100% 29.78 in 5.0 mi West 3.5 mph - 0.14 in Rain Rain
7:53 PM 66.9 °F - 66.0 °F 97% 29.80 in 8.0 mi Calm Calm - 0.03 in Rain Light Rain
9:12 PM 66.2 °F - 64.4 °F 94% 29.83 in 6.0 mi SSW 6.9 mph 17.3 mph N/A   Mostly Cloudy
9:53 PM 66.0 °F - 64.9 °F 96% 29.82 in 6.0 mi Calm Calm - N/A   Clear
10:06 PM 64.4 °F - 64.4 °F 100% 29.83 in 1.5 mi Calm Calm - N/A   Mostly Cloudy
10:09 PM 64.4 °F - 64.4 °F 100% 29.83 in 0.8 mi Calm Calm - N/A   Mostly Cloudy
10:39 PM 64.4 °F - 64.4 °F 100% 29.84 in 0.5 mi Calm Calm - N/A Fog Fog
10:44 PM 64.4 °F - 64.4 °F 100% 29.84 in 1.2 mi South 4.6 mph - N/A   Partly Cloudy
10:48 PM 64.4 °F - 64.4 °F 100% 29.84 in 3.0 mi South 4.6 mph - N/A   Partly Cloudy
10:53 PM 64.0 °F - 64.0 °F 100% 29.82 in 5.0 mi Calm Calm - N/A   Scattered Clouds
11:53 PM 63.0 °F - 63.0 °F 100% 29.81 in 3.0 mi Calm Calm - 0.01 in   Clear
11:55 PM 62.6 °F - 62.6 °F 100% 29.82 in 1.2 mi Calm Calm - N/A   Clear